This is the latest recevied weather packets stored in our database for station/object KU9TRY. If no packets are shown the sender has not sent any weather packets the latest 10 day(s).
| Time | Temp. | Humidity | Pressure | Rain* | Wind** | Luminosity | Snow |
|---|---|---|---|---|---|---|---|
| 1777685510 | 11.67° C | 59% | 1016.4 hPa | 0 mm | - | 0 W/m² | - |
| 1777685208 | 12.22° C | 52% | 1016.5 hPa | 0 mm | - | 0 W/m² | - |
| 1777684906 | 12.22° C | 49% | 1016.4 hPa | 0 mm | - | 0 W/m² | - |
| 1777684602 | 12.78° C | 56% | 1016.4 hPa | 0 mm | - | 0 W/m² | - |
| 1777684298 | 12.78° C | 50% | 1016.1 hPa | 0 mm | - | 0 W/m² | - |
| 1777683996 | 13.33° C | 48% | 1016 hPa | 0 mm | - | 0 W/m² | - |
| 1777683692 | 13.33° C | 47% | 1015.9 hPa | 0 mm | - | 0 W/m² | - |
| 1777683389 | 12.78° C | 47% | 1015.8 hPa | 0 mm | - | 0 W/m² | - |
| 1777683087 | 13.33° C | 51% | 1015.8 hPa | 0 mm | - | 0 W/m² | - |
| 1777682783 | 13.33° C | 48% | 1015.7 hPa | 0 mm | - | 0 W/m² | - |
| 1777682480 | 13.33° C | 49% | 1015.4 hPa | 0 mm | - | 0 W/m² | - |
| 1777682178 | 13.89° C | 48% | 1015.3 hPa | 0 mm | - | 1 W/m² | - |
| 1777681874 | 13.89° C | 46% | 1015.2 hPa | 0 mm | - | 2 W/m² | - |
| 1777681570 | 13.89° C | 45% | 1015.1 hPa | 0 mm | - | 4 W/m² | - |
| 1777681268 | 14.44° C | 45% | 1015 hPa | 0 mm | - | 5 W/m² | - |
| 1777680966 | 14.44° C | 49% | 1015 hPa | 0 mm | - | 7 W/m² | - |
| 1777680663 | 14.44° C | 48% | 1014.7 hPa | 0 mm | - | 13 W/m² | - |
| 1777680361 | 14.44° C | 47% | 1014.6 hPa | 0 mm | - | 16 W/m² | - |
| 1777680058 | 15° C | 47% | 1014.5 hPa | 0 mm | - | 20 W/m² | - |
| 1777679753 | 15.56° C | 46% | 1014.5 hPa | 0 mm | - | 22 W/m² | - |
| 1777679450 | 15.56° C | 48% | 1014.2 hPa | 0 mm | - | 22 W/m² | - |
| 1777679145 | 16.11° C | 40% | 1014.4 hPa | 0 mm | - | 26 W/m² | - |
| 1777678844 | 16.11° C | 40% | 1014.3 hPa | 0 mm | - | 39 W/m² | - |
| 1777678541 | 16.11° C | 40% | 1014.4 hPa | 0 mm | - | 38 W/m² | - |
| 1777678238 | 16.11° C | 41% | 1014.5 hPa | 0 mm | - | 40 W/m² | - |
* Rain latest hour (hover to see other rain measurements)
** Current wind speed in m/s (hover to see current wind gust speed)